Weather History for Two Harbors, MN

Change the Weather History Date:

Tuesday, May 7, 2013

  Actual Average Record
Temperature  
Mean Temperature 51 °F -  
Max Temperature 69 °F 53 °F 76 °F (1951)
Min Temperature 33 °F 36 °F 26 °F (1956)
Degree Days  
Heating Degree Days 14    
Growing Degree Days 1 (Base 50)    
Moisture  
Dew Point 39 °F    
Average Humidity 63    
Maximum Humidity 87    
Minimum Humidity 40    
Precipitation  
Precipitation 0.00 in - - ()
Sea Level Pressure  
Sea Level Pressure 30.02 in    
Wind  
Wind Speed 2 mph (East)    
Max Wind Speed 10 mph    
Max Gust Speed -    
Visibility 10 miles    
Events      
Averages and records for this station are not official NWS values.
T = Trace of Precipitation, MM = Missing Value Source: NWS Daily Summary

Daily Weather History Graph

Daily Weather History Graph

Search for Another Location

Airport:

Trip Planner

Search our weather history database for the weather conditions in past years. The results will help you decide how hot, cold, wet, or windy it might be!

Date:

Astronomy

May. 07, 2013 Rise Set
Actual Time 5:41 AM CDT 8:26 PM CDT
Civil Twilight 5:06 AM CDT 9:01 PM CDT
Nautical Twilight 4:22 AM CDT 9:45 PM CDT
Astronomical Twilight 3:30 AM CDT 10:38 PM CDT
Moon 4:25 AM CDT (5/7) 6:19 PM CDT (5/7)
Length of Visible Light 15h 54m
Length of Day
14h 44m
Waning Crescent, 5% of the Moon is Illuminated
May 7
Waning Crescent
May 9
New
May 17
First Quarter
May 24
Full
May 31
Last Quarter

Hourly Weather History & Observations

Time (CDT) Temp. Windchill Dew Point Humidity Pressure Visibility Wind Dir Wind Speed Gust Speed Precip Events Conditions
12:11 AM 39.2 °F - 33.8 °F 81% 30.03 in 10.0 mi Calm Calm - N/A   Clear
12:31 AM 39.2 °F - 35.6 °F 87% 30.03 in 10.0 mi Calm Calm - N/A   Clear
12:51 AM 39.2 °F - 33.8 °F 81% 30.04 in 10.0 mi Calm Calm - N/A   Clear
1:11 AM 37.4 °F - 33.8 °F 87% 30.04 in 10.0 mi Calm Calm - N/A   Clear
1:31 AM 37.4 °F 34.9 °F 32.0 °F 81% 30.04 in 10.0 mi North 3.5 mph - N/A   Clear
1:51 AM 37.4 °F - 32.0 °F 81% 30.04 in 10.0 mi Calm Calm - N/A   Clear
2:11 AM 35.6 °F - 30.2 °F 81% 30.04 in 10.0 mi Calm Calm - N/A   Clear
2:31 AM 37.4 °F - 32.0 °F 81% 30.04 in 10.0 mi Calm Calm - N/A   Scattered Clouds
3:11 AM 39.2 °F - 33.8 °F 81% 30.05 in 10.0 mi Calm Calm - N/A   Overcast
3:31 AM 37.4 °F - 33.8 °F 87% 30.05 in 10.0 mi Calm Calm - N/A   Mostly Cloudy
3:51 AM 35.6 °F - 30.2 °F 81% 30.05 in 10.0 mi Calm Calm - N/A   Scattered Clouds
4:12 AM 35.6 °F - 30.2 °F 81% 30.05 in 10.0 mi Calm Calm - N/A   Scattered Clouds
4:31 AM 35.6 °F - 30.2 °F 81% 30.05 in 10.0 mi Calm Calm - N/A   Clear
4:51 AM 33.8 °F - 28.4 °F 81% 30.05 in 10.0 mi Calm Calm - N/A   Clear
5:12 AM 35.6 °F - 30.2 °F 81% 30.05 in 10.0 mi Calm Calm - N/A   Clear
5:31 AM 33.8 °F - 28.4 °F 81% 30.05 in 10.0 mi Calm Calm - N/A   Clear
5:51 AM 33.8 °F - 28.4 °F 81% 30.05 in 10.0 mi Calm Calm - N/A   Clear
6:12 AM 35.6 °F - 30.2 °F 81% 30.05 in 10.0 mi Calm Calm - N/A   Clear
6:31 AM 37.4 °F - 32.0 °F 81% 30.05 in 10.0 mi Calm Calm - N/A   Clear
6:51 AM 39.2 °F - 35.6 °F 87% 30.06 in 10.0 mi Calm Calm - N/A   Clear
7:12 AM 39.2 °F - 33.8 °F 81% 30.06 in 10.0 mi Calm Calm - N/A   Clear
7:31 AM 39.2 °F - 35.6 °F 87% 30.06 in 10.0 mi Calm Calm - N/A   Clear
7:51 AM 42.8 °F - 37.4 °F 81% 30.06 in 10.0 mi Calm Calm - N/A   Clear
8:12 AM 48.2 °F - 42.8 °F 82% 30.07 in 10.0 mi Calm Calm - N/A   Mostly Cloudy
8:31 AM 53.6 °F - 42.8 °F 67% 30.07 in 10.0 mi Calm Calm - N/A   Mostly Cloudy
8:51 AM 55.4 °F - 44.6 °F 67% 30.07 in 10.0 mi ENE 3.5 mph - N/A   Scattered Clouds
9:12 AM 55.4 °F - 44.6 °F 67% 30.06 in 10.0 mi East 4.6 mph - N/A   Scattered Clouds
9:31 AM 57.2 °F - 44.6 °F 63% 30.06 in 10.0 mi Calm Calm - N/A   Scattered Clouds
9:51 AM 60.8 °F - 44.6 °F 55% 30.06 in 10.0 mi SE 3.5 mph - N/A   Scattered Clouds
10:12 AM 62.6 °F - 46.4 °F 55% 30.06 in 10.0 mi ENE 4.6 mph - N/A   Scattered Clouds
10:31 AM 62.6 °F - 46.4 °F 55% 30.05 in 10.0 mi ENE 3.5 mph - N/A   Clear
10:51 AM 64.4 °F - 44.6 °F 49% 30.05 in 10.0 mi SE 3.5 mph - N/A   Clear
11:12 AM 64.4 °F - 44.6 °F 49% 30.05 in 10.0 mi SSE 4.6 mph - N/A   Clear
11:31 AM 66.2 °F - 46.4 °F 49% 30.04 in 10.0 mi ESE 3.5 mph - N/A   Clear
11:51 AM 66.2 °F - 46.4 °F 49% 30.04 in 10.0 mi ESE 4.6 mph - N/A   Clear
12:12 PM 66.2 °F - 46.4 °F 49% 30.04 in 10.0 mi East 3.5 mph - N/A   Clear
12:51 PM 68.0 °F - 46.4 °F 46% 30.03 in 10.0 mi SE 4.6 mph - N/A   Clear
1:11 PM 68.0 °F - 46.4 °F 46% 30.02 in 10.0 mi East 5.8 mph - N/A   Clear
1:31 PM 69.8 °F - 46.4 °F 43% 30.02 in 10.0 mi East 5.8 mph - N/A   Clear
1:51 PM 68.0 °F - 46.4 °F 46% 30.02 in 10.0 mi East 5.8 mph - N/A   Clear
2:11 PM 68.0 °F - 46.4 °F 46% 30.01 in 10.0 mi East 5.8 mph - N/A   Clear
2:31 PM 68.0 °F - 44.6 °F 43% 30.01 in 10.0 mi East 5.8 mph - N/A   Clear
2:51 PM 69.8 °F - 46.4 °F 43% 30.00 in 10.0 mi East 6.9 mph - N/A   Clear
3:11 PM 69.8 °F - 44.6 °F 40% 29.99 in 10.0 mi East 9.2 mph - N/A   Clear
3:31 PM 69.8 °F - 46.4 °F 43% 29.99 in 10.0 mi East 10.4 mph - N/A   Clear
3:52 PM 68.0 °F - 44.6 °F 43% 29.98 in 10.0 mi East 8.1 mph - N/A   Clear
4:11 PM 68.0 °F - 44.6 °F 43% 29.98 in 10.0 mi East 9.2 mph - N/A   Clear
4:31 PM 69.8 °F - 44.6 °F 40% 29.97 in 10.0 mi East 8.1 mph - N/A   Clear
4:52 PM 68.0 °F - 44.6 °F 43% 29.97 in 10.0 mi East 10.4 mph - N/A   Clear
5:11 PM 66.2 °F - 42.8 °F 43% 29.97 in 10.0 mi East 10.4 mph - N/A   Clear
5:31 PM 68.0 °F - 42.8 °F 40% 29.97 in 10.0 mi East 8.1 mph - N/A   Clear
5:52 PM 66.2 °F - 42.8 °F 43% 29.96 in 10.0 mi NE 5.8 mph - N/A   Clear
6:11 PM 66.2 °F - 44.6 °F 46% 29.96 in 10.0 mi ENE 6.9 mph - N/A   Clear
6:31 PM 66.2 °F - 44.6 °F 46% 29.96 in 10.0 mi East 5.8 mph - N/A   Clear
6:51 PM 64.4 °F - 42.8 °F 45% 29.96 in 10.0 mi ENE 4.6 mph - N/A   Scattered Clouds
7:11 PM 62.6 °F - 42.8 °F 48% 29.96 in 10.0 mi East 4.6 mph - N/A   Scattered Clouds
7:31 PM 62.6 °F - 42.8 °F 48% 29.96 in 10.0 mi ENE 6.9 mph - N/A   Scattered Clouds
7:51 PM 60.8 °F - 41.0 °F 48% 29.96 in 10.0 mi ENE 3.5 mph - N/A   Scattered Clouds
8:12 PM 57.2 °F - 39.2 °F 51% 29.96 in 10.0 mi NE 3.5 mph - N/A   Clear
8:31 PM 57.2 °F - 39.2 °F 51% 29.96 in 10.0 mi Calm Calm - N/A   Clear
8:51 PM 53.6 °F - 39.2 °F 58% 29.97 in 10.0 mi Calm Calm - N/A   Clear
9:12 PM 55.4 °F - 39.2 °F 54% 29.97 in 10.0 mi North 5.8 mph - N/A   Clear
9:31 PM 51.8 °F - 39.2 °F 62% 29.98 in 10.0 mi NNE 3.5 mph - N/A   Clear
9:51 PM 50.0 °F - 39.2 °F 66% 29.98 in 10.0 mi Calm Calm - N/A   Clear
10:11 PM 48.2 °F - 37.4 °F 66% 29.98 in 10.0 mi North 3.5 mph - N/A   Scattered Clouds
10:31 PM 46.4 °F - 37.4 °F 71% 29.98 in 10.0 mi Calm Calm - N/A   Clear
10:51 PM 46.4 °F 44.3 °F 37.4 °F 71% 29.98 in 10.0 mi North 4.6 mph - N/A   Clear
11:11 PM 46.4 °F - 37.4 °F 71% 29.98 in 10.0 mi Calm Calm - N/A   Clear
11:31 PM 44.6 °F - 37.4 °F 76% 29.98 in 10.0 mi Calm Calm - N/A   Clear
11:51 PM 44.6 °F - 35.6 °F 71% 29.98 in 10.0 mi Calm Calm - N/A   Clear